K0RGI Weather Reports


Display with metric or nautical units.
time (UTC)temp
F
wind
direction
speed
MPH
gust
MPH
rain 1hr
in
rain 24hr
in
rain mn
in
humidity
%
barometer
mb
20260506033351 72 241 2.0 2.0 0.00 0.00 0.00 48 1012.8
20260506032350 72 274 4.0 6.0 0.00 0.00 0.00 48 1013.1
20260506031350 72 157 4.0 7.0 0.00 0.00 0.00 48 1013.0
20260506030346 72 224 3.0 3.0 0.00 0.00 0.00 48 1013.1
20260506025344 71 315 8.0 13.0 0.00 0.00 0.00 49 1013.4
20260506024344 71 281 3.0 3.0 0.00 0.00 0.00 50 1013.2
20260506023343 71 255 3.0 5.0 0.00 0.00 0.00 50 1013.0
20260506022343 71 254 2.0 3.0 0.00 0.00 0.00 50 1012.8
20260506021343 71 273 6.0 10.0 0.00 0.00 0.00 50 1013.0
20260506020338 70 317 6.0 9.0 0.00 0.00 0.00 50 1013.4
20260506015333 70 257 1.0 2.0 0.00 0.00 0.00 50 1013.2
20260506014332 70 240 5.0 7.0 0.00 0.00 0.00 49 1012.7
20260506013332 70 251 3.0 5.0 0.00 0.00 0.00 49 1012.5
20260506012332 70 270 2.0 2.0 0.00 0.00 0.00 49 1012.7
20260506011331 71 280 1.0 2.0 0.00 0.00 0.00 49 1012.6
20260506010326 71 241 3.0 5.0 0.00 0.00 0.00 48 1012.4
20260506005325 71 278 2.0 2.0 0.00 0.00 0.00 48 1012.3
20260506004325 72 284 2.0 3.0 0.00 0.00 0.00 48 1012.7
20260506003323 72 264 2.0 3.0 0.00 0.00 0.00 46 1012.9
20260506002322 73 245 1.0 2.0 0.00 0.00 0.00 45 1012.9
20260506001321 73 222 3.0 5.0 0.00 0.00 0.00 45 1012.6
20260506000323 73 275 0.0 1.0 0.00 0.00 0.00 45 1012.8
20260505235321 73 267 0.0 1.0 0.00 0.00 0.00 44 1013.0
20260505234316 73 291 5.0 7.0 0.00 0.00 0.00 43 1012.9
20260505233317 74 238 2.0 2.0 0.00 0.00 0.00 42 1012.7
20260505232311 73 238 3.0 5.0 0.00 0.00 0.00 43 1012.6
20260505231306 74 266 2.0 2.0 0.00 0.00 0.00 45 1012.5
20260505230306 75 248 1.0 1.0 0.00 0.00 0.00 45 1012.4
20260505225306 75 255 3.0 3.0 0.00 0.00 0.00 46 1012.7
20260505224305 75 257 3.0 6.0 0.00 0.00 0.00 45 1012.7
20260505223305 75 259 1.0 1.0 0.00 0.00 0.00 47 1012.5
20260505222305 75 267 2.0 3.0 0.00 0.00 0.00 47 1012.6
20260505221302 75 250 2.0 2.0 0.00 0.00 0.00 48 1012.7
20260505220257 75 268 1.0 2.0 0.00 0.00 0.00 50 1012.9
20260505215252 75 315 3.0 3.0 0.00 0.00 0.00 48 1012.8
20260505214247 75 245 3.0 5.0 0.00 0.00 0.00 48 1012.8
20260505213248 76 274 3.0 5.0 0.00 0.00 0.00 48 1012.8
20260505212247 76 271 3.0 3.0 0.00 0.00 0.00 47 1013.0
20260505211247 76 258 6.0 7.0 0.00 0.00 0.00 47 1013.0
20260505210246 76 217 1.0 2.0 0.00 0.00 0.00 48 1012.8
20260505205241 77 331 6.0 8.0 0.00 0.00 0.00 46 1013.1
20260505204241 78 286 1.0 1.0 0.00 0.00 0.00 45 1013.6
20260505203241 77 251 4.0 6.0 0.00 0.00 0.00 43 1013.4
20260505202238 78 322 2.0 2.0 0.00 0.00 0.00 42 1013.8
20260505201239 78 275 4.0 6.0 0.00 0.00 0.00 42 1013.8
20260505200234 78 300 2.0 2.0 0.00 0.00 0.00 41 1014.0
20260505195233 77 251 2.0 3.0 0.00 0.00 0.00 41 1014.2
20260505194232 77 293 3.0 3.0 0.00 0.00 0.00 42 1014.3
20260505193231 75 256 3.0 5.0 0.00 0.00 0.00 44 1014.2
20260505192227 75 282 1.0 2.0 0.00 0.00 0.00 43 1014.4
20260505191223 75 261 3.0 7.0 0.00 0.00 0.00 43 1014.5
20260505190219 75 270 2.0 3.0 0.00 0.00 0.00 46 1014.7
20260505185218 75 271 0.0 0.0 0.00 0.00 0.00 45 1014.8
20260505184218 75 268 1.0 1.0 0.00 0.00 0.00 46 1015.2
20260505183218 75 273 2.0 2.0 0.00 0.00 0.00 44 1015.3
20260505182217 74 289 1.0 2.0 0.00 0.00 0.00 44 1015.4
20260505181217 75 322 3.0 6.0 0.00 0.00 0.00 46 1015.8
20260505180216 74 283 1.0 2.0 0.00 0.00 0.00 45 1016.1
20260505175215 74 245 4.0 6.0 0.00 0.00 0.00 48 1015.6
20260505174214 74 264 3.0 6.0 0.00 0.00 0.00 49 1015.9
20260505173213 75 225 1.0 2.0 0.00 0.00 0.00 48 1016.3
20260505172212 74 274 4.0 7.0 0.00 0.00 0.00 47 1016.5
20260505171209 75 268 5.0 7.0 0.00 0.00 0.00 48 1016.6
20260505170209 74 335 3.0 5.0 0.00 0.00 0.00 52 1016.8
20260505165205 73 269 3.0 6.0 0.00 0.00 0.00 50 1016.9
20260505164204 73 257 2.0 3.0 0.00 0.00 0.00 51 1016.9
20260505163200 74 273 1.0 1.0 0.00 0.00 0.00 53 1017.0
20260505162201 73 278 2.0 2.0 0.00 0.00 0.00 50 1017.0
20260505161200 73 283 5.0 8.0 0.00 0.00 0.00 53 1017.0
20260505160155 73 170 3.0 5.0 0.00 0.00 0.00 54 1016.9
20260505153152 73 234 2.0 3.0 0.00 0.00 0.00 56 1016.8
20260505152150 71 265 8.0 10.0 0.00 0.00 0.00 55 1016.8
20260505151149 70 256 2.0 2.0 0.00 0.00 0.00 57 1017.0
20260505150148 70 284 6.0 7.0 0.00 0.00 0.00 55 1016.8
20260505140148 69 126 3.0 3.0 0.00 0.00 0.00 57 1017.1
20260505130135 66 260 0.0 1.0 0.00 0.00 0.00 65 1016.9
20260505124133 63 289 0.0 1.0 0.00 0.00 0.00 68 1016.7
20260505123132 62 197 2.0 2.0 0.00 0.00 0.00 71 1016.7
20260505122132 59 316 1.0 1.0 0.00 0.00 0.00 78 1016.7
20260505121131 58 315 0.0 1.0 0.00 0.00 0.00 81 1016.5
20260505120129 57 315 1.0 1.0 0.00 0.00 0.00 82 1016.6
20260505115127 56 312 0.0 1.0 0.00 0.00 0.00 80 1016.2
20260505114126 56 312 0.0 1.0 0.00 0.00 0.00 78 1016.4
20260505113125 56 310 1.0 1.0 0.00 0.00 0.00 76 1016.0
20260505112120 55 310 1.0 1.0 0.00 0.00 0.00 76 1016.0
20260505111115 55 307 1.0 1.0 0.00 0.00 0.00 80 1015.9
20260505110115 54 310 0.0 0.0 0.00 0.00 0.00 79 1015.8
20260505102108 55 310 1.0 1.0 0.00 0.00 0.00 75 1015.6
20260505101108 55 305 0.0 1.0 0.00 0.00 0.00 77 1015.7
20260505100107 55 261 0.0 0.0 0.00 0.00 0.00 77 1015.9
20260505095105 56 261 0.0 0.0 0.00 0.00 0.00 74 1015.4
20260505094104 57 262 0.0 0.0 0.00 0.00 0.00 70 1015.8
20260505093104 58 265 1.0 1.0 0.00 0.00 0.00 69 1015.4
20260505092100 58 263 0.0 0.0 0.00 0.00 0.00 69 1015.5
20260505091054 58 277 2.0 2.0 0.00 0.00 0.00 69 1015.4
20260505090049 58 265 0.0 0.0 0.00 0.00 0.00 70 1015.6
20260505085045 58 258 1.0 1.0 0.00 0.00 0.00 69 1015.2
20260505084041 58 240 1.0 1.0 0.00 0.00 0.00 70 1015.2
20260505083040 59 258 0.0 0.0 0.00 0.00 0.00 69 1015.4
20260505082039 59 257 0.0 1.0 0.00 0.00 0.00 69 1015.3
20260505081038 59 253 1.0 1.0 0.00 0.00 0.00 69 1015.2
20260505080037 59 261 0.0 1.0 0.00 0.00 0.00 69 1015.1
20260505075036 59 256 0.0 1.0 0.00 0.00 0.00 68 1015.0
20260505074036 59 262 1.0 1.0 0.00 0.00 0.00 68 1014.8
20260505073032 60 265 0.0 1.0 0.00 0.00 0.00 67 1015.0
20260505072029 60 266 1.0 2.0 0.00 0.00 0.00 67 1015.2
20260505071029 60 271 0.0 0.0 0.00 0.00 0.00 67 1015.3
20260505070027 60 257 0.0 1.0 0.00 0.00 0.00 67 1015.3
20260505065025 60 254 1.0 1.0 0.00 0.00 0.00 67 1015.1
20260505064021 60 268 1.0 1.0 0.00 0.00 0.00 67 1015.4
20260505063019 61 266 0.0 0.0 0.00 0.00 0.00 67 1015.2
20260505062020 61 256 0.0 1.0 0.00 0.00 0.00 67 1015.3
20260505061015 61 260 0.0 1.0 0.00 0.00 0.00 66 1015.3
20260505060014 61 266 0.0 0.0 0.00 0.00 0.00 66 1015.2
20260505055012 62 265 0.0 1.0 0.00 0.00 0.00 65 1015.2
20260505054008 62 255 0.0 1.0 0.00 0.00 0.00 64 1015.4
20260505053007 63 270 1.0 2.0 0.00 0.00 0.00 63 1015.1
20260505052007 63 264 2.0 2.0 0.00 0.00 0.00 63 1015.1
20260505051002 64 266 2.0 3.0 0.00 0.00 0.00 63 1015.0
20260505041000 64 270 1.0 1.0 0.00 0.00 0.00 62 1015.0
20260505040000 64 256 1.0 1.0 0.00 0.00 0.00 62 1015.0
20260505034959 65 273 0.0 1.0 0.00 0.00 0.00 61 1015.0
20260505033958 65 265 2.0 2.0 0.00 0.00 0.00 60 1015.0